This demonstration page uses our WeatherBlox Daily Observations layout. Learn more.

Left ArrowRight Arrow

39.12711, -84.51439

Hourly Observations for June 30, 2021

Temp ( °F °C ) Dew Point ( °F °C ) Humidity (%) Winds ( mph kmh ) Pressure ( in mb ) Visibility ( mi km ) Precip ( " mm )
12:53 am 00:53 Mostly Clear 74 23.3 71 21.7 91 91 N N/A 30.15 1021 10 16 N/A
1:53 am 01:53 Mostly Cloudy with Light Rain 74 23.3 72 22.2 94 94 NNW 6 9 30.12 1020 10 16 0.00 0.00
2:53 am 02:53 Clear 73 22.8 71 21.7 94 94 N N/A 30.11 1020 9 14 0.00 0.00
3:26 am 03:26 Clear with Mist and Fog 73 22.8 72 22.2 96 96 N N/A 30.11 1020 2 3 N/A
3:36 am 03:36 Clear with Mist and Fog 72 22.2 71 21.7 97 97 SSE 5 7 30.12 1020 5 8 N/A
3:53 am 03:53 Partly Cloudy with Mist and Fog 72 22.2 71 21.7 97 97 SSW 3 6 30.11 1020 2 3 N/A
4:03 am 04:03 Mostly Clear with Mist and Fog 73 22.8 72 22.2 96 96 WSW 3 6 30.10 1019 6 10 N/A
4:53 am 04:53 Mostly Clear with Mist and Fog 72 22.2 70 21.1 94 94 N N/A 30.09 1019 5 8 N/A
5:31 am 05:31 Mostly Clear with Mist and Fog 71 21.7 70 21.1 96 96 N N/A 30.10 1019 2 3 N/A
5:47 am 05:47 Mostly Clear with Mist and Fog 72 22 70 21 94 94 SSW 5 7 30.09 1019 4 6 N/A
5:53 am 05:53 Mostly Clear with Mist and Fog 71 21.7 70 21.1 96 96 S 5 7 30.10 1019 5 8 N/A
6:53 am 06:53 Sunny with Mist and Fog 72 22.2 70 21.1 94 94 SSW 5 7 30.12 1020 6 10 N/A
7:53 am 07:53 Sunny 74 23.3 72 22.2 94 94 S 5 7 30.13 1020 9 14 N/A
8:53 am 08:53 Mostly Cloudy 78 25.6 70 21.1 76 76 W 8 13 30.14 1021 10 16 N/A
9:53 am 09:53 Cloudy 78 25.6 69 20.6 74 74 NW 8 13 30.16 1021 10 16 N/A
10:53 am 10:53 Cloudy 79 26.1 69 20.6 72 72 N N/A 30.15 1021 10 16 N/A
11:53 am 11:53 Partly Cloudy 81 27.2 71 21.7 72 72 SSW 6 9 30.14 1021 10 16 N/A
12:53 pm 12:53 Mostly Sunny 81 27.2 70 21.1 69 69 SSW 6 9 30.12 1020 10 16 N/A
1:53 pm 13:53 Sunny 82 27.8 71 21.7 69 69 SSW 9 15 30.09 1019 10 16 N/A
2:53 pm 14:53 Partly Cloudy 83 28.3 72 22.2 70 70 S 9 15 30.07 1018 10 16 N/A
3:53 pm 15:53 Mostly Cloudy 83 28.3 72 22.2 70 70 SSW 5 7 30.06 1018 10 16 N/A
4:53 pm 16:53 Mostly Cloudy 84 28.9 72 22.2 67 67 WSW 6 9 30.05 1018 10 16 N/A
5:53 pm 17:53 Partly Cloudy 80 26.7 70 21.1 71 71 N 5 7 30.05 1018 10 16 0.00 0.00
6:29 pm 18:29 Partly Cloudy with Nearby Thunderstorms 80 26.7 71 21.7 74 74 NNE 6 9 30.02 1016 10 16 N/A
6:53 pm 18:53 Mostly Cloudy with Thunderstorms 77 25 68 20 74 74 NNW 20 31 30.04 1017 10 16 N/A
7:45 pm 19:45 Mostly Cloudy 73 22.8 69 20.6 87 87 NE 9 15 30.03 1017 10 16 0.00 0.00
7:53 pm 19:53 Mostly Cloudy 73 22.8 68 20 84 84 ENE 5 7 30.03 1017 10 16 0.00 0.00
8:49 pm 20:49 Mostly Cloudy with Nearby Thunderstorms 72 22 68 20 88 88 N 3 6 30.03 1017 10 16 N/A
8:53 pm 20:53 Mostly Cloudy with Nearby Thunderstorms 72 22.2 68 20 87 87 N 3 6 30.04 1017 10 16 N/A
9:07 pm 21:07 Mostly Cloudy 72 22.2 68 20 87 87 NE 3 6 30.02 1017 10 16 N/A
9:21 pm 21:21 Mostly Cloudy with Nearby Thunderstorms 71 21.7 68 20 90 90 SE 3 6 30.03 1017 10 16 N/A
9:49 pm 21:49 Mostly Cloudy with Thunderstorms 72 22 70 21 94 94 N N/A 30.03 1017 10 16 N/A
9:53 pm 21:53 Cloudy with Thunderstorms 72 22.2 69 20.6 91 91 WSW 7 11 30.05 1018 10 16 N/A
10:00 pm 22:00 Cloudy with Thunderstorms 73 22.8 69 20.6 87 87 WSW 13 20 30.06 1018 2 2 0.24 6.10
10:08 pm 22:08 Cloudy with Strong Thunderstorms 72 22.2 69 20.6 91 91 WNW 14 22 30.06 1018 1 1 0.65 16.51
10:16 pm 22:16 Cloudy with Strong Thunderstorms 70 21.1 68 20 93 93 NW 9 15 30.06 1018 1 1 1.17 29.72
10:41 pm 22:41 Cloudy with Strong Thunderstorms 70 21.1 70 21.1 100 100 N 8 13 30.07 1018 1 2 2.28 57.91
10:49 pm 22:49 Cloudy with Strong Thunderstorms 70 21 70 21 100 100 NNE 6 9 30.07 1018 3 5 2.32 58.93
10:53 pm 22:53 Cloudy with Strong Thunderstorms 70 21 N/A N/A N N/A 30.06 1018 3 5 2.34 59.44
11:00 pm 23:00 Cloudy with Thunderstorms 70 21 N/A N/A SW 3 6 30.08 1019 4 6 0.01 0.25
11:38 pm 23:38 Mostly Cloudy with Nearby Thunderstorms 70 21.1 70 21.1 100 100 SE 3 6 30.03 1017 8 13 0.10 2.54
11:53 pm 23:53 Partly Cloudy with Nearby Thunderstorms 69 20.6 69 20.6 100 100 S 5 7 30.03 1017 10 16 0.10 2.54

Powered by AerisWeather